Location: Orinda
(37.8771°N, 122.1797°W)
Time: 00:36:28
(UTC+00:00)

USA 267 - Pass Details

Date: 21 October 2019
Orbit: 1101 x 1106 km, 123.0° (Epoch: 01 November)

Event Time Altitude Azimuth Distance (km) Brightness Sun altitude
Rises 12:37:35 0° 40° (NE) 3,923 6.8 -21.5°
Reaches altitude 10° 12:40:22 10° 30° (NNE) 2,964 5.9 -20.9°
Maximum altitude 12:45:51 30° 333° (NNW) 1,869 4.2 -19.8°
Enters shadow 12:48:01 25° 302° (WNW) 2,078 4.2 -19.4°
